Dewpoint
69 69 68 69 58 58 47 49 51 50 51 54 54 53 56 58 53 54 68 69 69 69 70 70 73 72 72 72 72 72 73 73 75 75 75 75 75 75 75 75 75 75 75 75 74 74 74 74 73
63 65 68 67 55 43 45 51 50 52 54 56 56 56 57 57 63 65 67 69 69 69 70 70 74 74 73 73 73 72 73 74 74 75 75 75 75 75 75 75 75 73 72 72 73 74 74 73 73
66 66 65 59 55 46 49 50 49 53 55 55 56 58 58 60 64 65 67 69 69 70 72 71 74 74 73 73 73 73 74 75 74 74 75 75 75 75 74 75 74 74 73 71 71 71 72 73 73
68 66 66 57 52 49 52 52 50 52 56 56 57 57 60 63 63 65 68 68 70 72 71 74 75 74 74 74 74 74 74 75 75 75 75 75 74 74 74 74 74 74 73 73 72 70 70 70 70
66 65 59 55 52 53 54 54 51 51 55 56 56 58 60 63 65 67 68 69 71 72 72 73 76 75 75 75 75 75 75 75 75 75 75 75 74 74 74 74 74 74 73 72 72 71 69 68 67
65 64 54 51 52 55 57 59 56 53 56 57 58 58 60 65 66 67 69 70 72 72 73 73 75 75 75 74 75 75 75 76 75 74 74 74 74 75 74 74 74 73 73 71 70 70 69 69 68
63 60 54 52 50 52 55 57 53 52 53 54 57 57 61 64 67 68 68 69 72 72 72 72 73 74 75 75 75 75 75 75 75 75 75 75 74 74 74 74 74 73 73 73 72 71 70 70 70
65 62 56 54 52 54 56 57 55 53 52 57 59 58 59 64 67 67 68 69 69 70 70 70 71 73 74 74 75 74 75 76 75 75 74 74 74 74 74 75 75 72 72 72 72 73 74 74 74
61 57 55 54 55 57 59 54 54 54 53 53 55 59 61 63 64 65 64 67 68 68 68 70 70 72 72 73 73 75 75 75 75 74 74 75 72 72 72 73 73 72 72 72 73 73 74 74 74
60 56 56 58 59 57 57 55 54 52 52 54 58 60 60 61 61 61 64 66 67 68 69 70 70 70 71 72 73 73 74 74 72 71 71 71 71 71 72 72 73 73 73 73 74 75 75 74 73
59 56 59 59 61 59 60 56 56 56 56 56 57 58 59 61 61 63 65 66 67 68 69 71 70 70 69 71 72 72 72 71 68 63 66 70 71 69 70 69 65 66 70 72 72 73 73 72 71
55 59 58 57 62 61 61 58 56 56 54 57 58 59 60 60 62 63 63 64 68 67 66 69 69 69 69 71 71 71 72 72 71 69 71 66 66 68 68 69 69 68 69 70 71 70 71 67 70
57 59 57 57 57 62 59 58 56 54 54 57 58 59 59 60 61 63 62 65 67 67 67 69 68 68 71 70 71 71 70 69 70 70 70 69 65 66 69 71 70 69 69 69 70 68 68 68 65
59 56 56 59 58 61 56 56 55 54 53 54 55 56 58 61 61 62 63 64 65 66 68 69 67 70 70 69 69 69 70 69 66 67 67 70 69 70 71 70 70 70 68 67 67 67 68 65 63
56 54 59 58 61 58 56 55 55 57 54 53 53 54 58 59 60 62 64 64 66 67 68 69 68 68 68 67 67 68 68 69 68 67 69 70 71 68 69 71 70 70 73 71 70 69 69 68 68
57 58 55 59 59 58 56 51 56 57 53 53 52 54 56 57 59 63 64 65 65 67 67 68 65 66 67 67 66 65 68 69 68 68 70 68 71 69 70 68 68 72 70 70 70 70 68 69 68
56 53 53 56 59 56 57 52 55 58 53 53 51 54 56 56 60 62 64 65 65 66 65 65 65 66 66 65 66 67 68 68 63 66 68 70 69 70 69 66 70 72 70 69 71 70 69 67 66
47 51 52 55 58 57 57 55 55 56 56 56 57 54 55 56 57 60 61 65 66 66 66 65 65 66 67 70 68 68 68 68 68 69 70 69 67 65 64 71 70 70 72 72 70 69 71 71 69
43 50 52 56 58 59 56 56 54 56 56 58 58 54 55 56 58 60 62 64 65 66 66 66 67 67 68 65 64 66 67 69 69 70 69 66 63 64 70 71 68 71 69 71 72 72 72 70 69
37 49 52 56 58 57 58 55 54 54 55 59 60 55 56 59 59 60 61 63 65 65 66 68 68 67 68 69 68 69 69 70 69 69 70 67 66 66 69 71 70 66 68 67 71 72 72 71 69
46 49 52 52 56 57 56 55 54 56 60 61 61 61 60 60 58 60 61 63 66 65 67 68 68 69 70 69 70 70 70 69 68 69 68 69 71 71 71 72 68 60 65 64 71 72 72 68 68
46 50 51 53 51 48 54 47 54 55 55 60 59 59 61 63 61 62 61 63 65 66 67 67 69 69 69 70 68 67 66 65 65 66 69 67 70 66 69 72 68 65 68 70 72 74 71 66 65
49 51 51 51 48 48 49 46 49 55 53 53 58 58 59 62 61 61 63 64 64 67 67 67 68 69 68 70 70 66 67 67 69 69 69 68 70 70 69 70 71 71 70 70 72 72 70 65 63
49 49 50 50 49 44 48 47 47 51 52 52 56 58 57 61 62 63 66 66 66 67 68 67 68 68 69 70 70 69 67 68 68 68 69 68 68 69 69 69 71 71 67 67 72 71 72 64 66
48 44 40 38 40 38 49 48 47 53 52 53 54 58 56 60 61 63 65 65 66 66 68 68 69 69 70 70 69 69 69 68 67 67 68 67 67 67 67 70 70 71 70 71 72 72 71 71 71
41 38 34 34 33 34 48 46 50 55 53 57 57 57 56 58 59 62 63 66 66 67 70 69 69 69 70 71 69 70 70 70 69 69 69 68 68 68 68 69 69 70 71 71 71 71 70 70 71
25 30 33 36 36 29 43 52 55 55 57 57 56 58 55 56 58 61 62 64 67 67 69 70 69 69 69 71 70 70 71 71 70 70 71 70 70 70 71 70 71 70 71 71 71 71 70 71 71
22 25 17 22 23 27 37 47 49 54 54 58 57 57 56 56 57 59 62 64 66 67 69 70 70 70 70 70 71 71 71 71 71 70 71 70 70 72 72 71 71 71 70 71 69 70 70 70 71
19 19 17 19 24 22 32 39 51 49 52 53 52 54 58 57 56 59 61 64 64 66 68 71 70 70 70 71 71 71 71 72 71 71 71 71 71 69 70 71 70 70 71 70 70 69 69 68 68
18 18 17 18 14 22 25 39 52 55 55 57 57 56 58 61 57 61 61 63 64 66 68 68 69 70 70 72 71 70 70 72 71 71 71 72 71 70 69 69 70 70 71 71 71 69 70 70 68
Lifted_Index
-2 -2 -3 -3 -1 0 0 -0 -1 -1 -2 -1 -1 -1 -2 -2 -2 -2 -3 -3 -3 -3 -4 -4 -4 -4 -4 -3 -3 -3 -3 -4 -4 -5 -5 -5 -5 -4 -4 -4 -4 -4 -4 -4 -4 -4 -4 -3 -3
-2 -2 -3 -2 -1 1 1 -0 -1 -1 -2 -2 -2 -2 -2 -2 -2 -3 -3 -3 -3 -3 -4 -4 -4 -4 -4 -4 -3 -3 -4 -4 -4 -5 -5 -5 -5 -5 -5 -5 -4 -4 -3 -3 -3 -4 -3 -3 -3
-2 -2 -3 -2 -0 1 1 -0 -1 -1 -2 -2 -2 -2 -2 -2 -3 -3 -3 -3 -3 -4 -4 -5 -5 -5 -5 -4 -4 -4 -4 -5 -5 -5 -5 -5 -5 -5 -5 -5 -4 -4 -3 -3 -3 -3 -3 -3 -3
-2 -2 -3 -2 -0 1 0 -0 -1 -1 -2 -2 -2 -2 -2 -2 -2 -3 -3 -3 -4 -5 -5 -6 -6 -6 -5 -5 -5 -4 -5 -5 -5 -5 -5 -5 -5 -5 -5 -5 -5 -4 -4 -4 -3 -2 -2 -2 -2
-2 -2 -2 -1 -0 0 -0 -1 -1 -1 -1 -2 -2 -2 -2 -2 -2 -3 -3 -3 -4 -5 -6 -6 -6 -6 -6 -6 -6 -6 -6 -6 -6 -6 -6 -6 -5 -5 -5 -5 -5 -4 -4 -4 -3 -2 -2 -1 -1
-2 -2 -1 -1 -0 -0 -1 -0 -0 -0 -1 -1 -1 -2 -2 -2 -3 -3 -3 -4 -4 -5 -6 -6 -6 -6 -6 -6 -6 -7 -7 -7 -7 -6 -6 -6 -6 -5 -5 -5 -5 -4 -4 -4 -3 -3 -2 -1 -1
-2 -2 -1 -0 -0 -1 -1 -1 -0 -0 -0 -1 -1 -1 -2 -2 -3 -3 -3 -4 -4 -5 -6 -6 -6 -6 -6 -6 -7 -7 -7 -8 -7 -7 -7 -6 -6 -6 -5 -5 -5 -5 -4 -4 -4 -3 -3 -3 -2
-1 -1 -1 -0 -1 -1 -1 -1 -0 0 0 -0 -1 -1 -2 -2 -2 -3 -3 -3 -4 -4 -5 -5 -6 -6 -6 -6 -6 -7 -7 -7 -7 -7 -7 -7 -6 -6 -5 -5 -5 -5 -5 -5 -5 -4 -4 -4 -4
-1 -1 -1 -1 -1 -2 -1 -1 -0 0 1 0 -1 -1 -1 -1 -2 -2 -2 -3 -3 -3 -4 -4 -5 -6 -6 -6 -6 -6 -7 -7 -7 -7 -7 -6 -6 -5 -5 -5 -5 -5 -5 -5 -5 -5 -5 -5 -5
-0 -0 -0 -1 -1 -1 -1 -1 -0 -0 0 0 -0 -1 -1 -1 -1 -2 -2 -3 -3 -3 -4 -4 -4 -5 -5 -6 -6 -6 -6 -6 -5 -5 -5 -5 -5 -4 -4 -4 -4 -4 -4 -5 -5 -5 -6 -5 -5
-0 -0 -0 -1 -1 -1 -1 -1 -1 -0 -0 -0 -0 -1 -1 -1 -1 -2 -2 -3 -4 -4 -4 -4 -4 -4 -5 -5 -5 -5 -5 -5 -4 -4 -4 -4 -4 -4 -3 -3 -2 -3 -3 -4 -5 -6 -6 -5 -5
-0 0 0 -0 -1 -1 -1 -1 -1 -0 0 0 0 -0 -1 -1 -2 -2 -2 -3 -4 -4 -4 -4 -4 -4 -4 -4 -5 -5 -5 -5 -4 -4 -3 -3 -3 -2 -2 -2 -2 -2 -3 -4 -5 -5 -5 -4 -4
-0 -0 0 0 -1 -1 -2 -1 -1 -0 1 1 0 0 -1 -1 -2 -2 -2 -3 -3 -3 -3 -3 -3 -3 -4 -4 -5 -5 -5 -5 -4 -3 -3 -3 -2 -2 -1 -2 -2 -3 -3 -4 -4 -4 -4 -4 -4
-1 -1 -1 -1 -1 -1 -1 -1 -1 0 1 1 1 0 -0 -1 -1 -2 -2 -2 -3 -3 -3 -3 -3 -4 -4 -4 -4 -5 -5 -4 -3 -3 -3 -3 -2 -2 -2 -3 -3 -3 -3 -3 -4 -4 -4 -4 -3
-1 -1 -1 -1 -2 -1 -1 -1 -1 -0 0 0 1 1 0 -0 -1 -1 -2 -2 -3 -3 -4 -4 -4 -4 -3 -3 -4 -4 -4 -3 -3 -2 -2 -3 -3 -3 -3 -3 -4 -4 -4 -4 -4 -5 -4 -4 -3
-1 -1 -2 -2 -2 -1 -1 -1 -1 -0 -0 0 1 1 1 0 -1 -2 -2 -2 -3 -3 -3 -3 -3 -3 -3 -3 -3 -3 -3 -3 -3 -2 -2 -2 -2 -2 -3 -4 -4 -5 -5 -5 -5 -6 -5 -4 -3
-1 -1 -1 -2 -2 -1 -1 -1 -1 -0 -0 0 1 1 1 0 -1 -2 -2 -2 -2 -3 -3 -3 -2 -2 -2 -3 -3 -3 -3 -3 -3 -2 -2 -2 -2 -2 -3 -4 -4 -4 -5 -5 -6 -6 -6 -5 -4
-1 -1 -1 -1 -2 -2 -1 -1 -1 0 0 0 0 1 1 1 -0 -1 -2 -2 -2 -2 -2 -2 -2 -2 -3 -3 -3 -3 -3 -3 -3 -3 -3 -2 -2 -2 -3 -4 -4 -4 -5 -6 -6 -7 -7 -6 -6
-1 -1 -1 -2 -2 -2 -2 -1 -0 0 0 0 0 0 1 1 0 -0 -1 -2 -2 -2 -2 -2 -2 -2 -3 -3 -3 -3 -3 -3 -3 -3 -3 -2 -2 -3 -4 -4 -4 -4 -5 -6 -7 -7 -7 -7 -6
-0 -1 -2 -2 -2 -2 -2 -1 -0 -0 -0 -0 -0 1 1 1 0 -0 -0 -1 -2 -2 -2 -2 -2 -2 -2 -3 -2 -3 -3 -3 -3 -3 -3 -3 -3 -3 -4 -4 -4 -4 -4 -6 -7 -7 -7 -7 -6
-1 -1 -2 -2 -2 -2 -1 -1 -0 -0 -1 -1 -0 1 1 1 0 -0 -1 -1 -2 -2 -2 -2 -3 -3 -3 -3 -3 -3 -3 -3 -3 -3 -3 -3 -3 -3 -4 -4 -4 -4 -4 -5 -6 -7 -6 -5 -5
-2 -2 -2 -2 -1 -1 -1 -0 -0 -0 -0 -1 -0 0 1 0 -0 -0 -1 -1 -2 -2 -2 -2 -2 -3 -3 -3 -3 -3 -2 -3 -3 -3 -3 -3 -3 -3 -3 -4 -4 -4 -4 -5 -6 -6 -5 -4 -4
-2 -2 -2 -1 -0 0 1 1 0 0 0 -0 -1 -0 0 0 -0 -1 -1 -1 -2 -2 -2 -2 -2 -2 -3 -3 -3 -3 -2 -2 -2 -3 -3 -2 -3 -3 -3 -4 -4 -4 -4 -5 -6 -6 -5 -4 -4
-2 -2 -1 -1 -0 0 1 1 0 0 -0 -0 -1 -1 -0 -0 -1 -1 -2 -2 -2 -2 -2 -2 -2 -2 -3 -3 -3 -3 -2 -2 -3 -3 -2 -2 -2 -3 -3 -4 -4 -4 -4 -5 -5 -5 -5 -4 -4
-2 -1 -1 -1 -0 0 0 -0 -0 -1 -1 -1 -1 -1 -0 -0 -1 -1 -2 -2 -2 -2 -2 -2 -2 -2 -2 -3 -3 -3 -3 -3 -3 -3 -3 -2 -2 -2 -3 -3 -4 -4 -4 -5 -5 -5 -5 -5 -5
-1 -0 -0 -0 -0 0 -0 -1 -1 -1 -2 -2 -1 -1 -0 -0 -0 -1 -2 -2 -2 -2 -3 -3 -2 -2 -3 -3 -3 -3 -3 -3 -3 -3 -3 -3 -3 -3 -3 -3 -3 -4 -4 -4 -5 -5 -5 -5 -5
0 0 0 1 0 0 -1 -2 -2 -2 -2 -2 -2 -1 -0 0 0 -0 -1 -1 -2 -2 -3 -3 -3 -2 -3 -3 -3 -3 -4 -4 -4 -3 -4 -3 -3 -3 -3 -3 -4 -4 -4 -4 -4 -4 -5 -5 -5
0 0 1 1 1 -0 -1 -2 -2 -2 -2 -2 -2 -1 -1 -0 0 1 -0 -1 -1 -2 -2 -3 -3 -2 -3 -3 -3 -3 -4 -4 -4 -4 -4 -4 -4 -4 -4 -4 -4 -4 -4 -4 -4 -4 -4 -4 -4
0 1 1 1 1 0 -1 -2 -3 -3 -2 -1 -1 -1 -1 -1 -1 -0 0 -0 -0 -1 -2 -3 -3 -3 -3 -3 -3 -3 -4 -4 -4 -4 -4 -4 -4 -4 -4 -4 -4 -4 -4 -4 -4 -4 -4 -4 -4
0 1 1 1 1 0 -1 -2 -3 -3 -2 -1 0 0 -1 -2 -1 -1 -0 0 -0 -1 -2 -3 -3 -3 -3 -4 -4 -3 -3 -4 -4 -5 -4 -4 -4 -4 -4 -4 -4 -4 -4 -4 -4 -4 -4 -4 -3